This is the latest recevied weather packets stored in our database for station/object IW3HBX-13. If no packets are shown the sender has not sent any weather packets the latest 10 day(s).
| Time | Temp. | Humidity | Pressure | Rain* | Wind** | Luminosity | Snow |
|---|---|---|---|---|---|---|---|
| 1777299128 | 25.56° C | 41% | 1016.6 hPa | 0 mm | - | 519 W/m² | - |
| 1777298768 | 26.11° C | 39% | 1016.7 hPa | 0 mm | - | 543 W/m² | - |
| 1777298050 | 25° C | 41% | 1016.8 hPa | 0 mm | - | 566 W/m² | - |
| 1777297687 | 25.56° C | 39% | 1016.9 hPa | 0 mm | - | 580 W/m² | - |
| 1777297327 | 24.44° C | 41% | 1017.1 hPa | 0 mm | - | 601 W/m² | - |
| 1777296969 | 25.56° C | 39% | 1017.1 hPa | 0 mm | - | 618 W/m² | - |
| 1777296607 | 25° C | 40% | 1017.2 hPa | 0 mm | - | 635 W/m² | - |
| 1777296247 | 26.11° C | 38% | 1017.3 hPa | 0 mm | - | 646 W/m² | - |
| 1777295887 | 25.56° C | 38% | 1017.4 hPa | 0 mm | - | 661 W/m² | - |
| 1777295528 | 25° C | 39% | 1017.4 hPa | 0 mm | - | 679 W/m² | - |
| 1777295169 | 25.56° C | 39% | 1017.5 hPa | 0 mm | - | 691 W/m² | - |
| 1777294447 | 25° C | 40% | 1017.6 hPa | 0 mm | - | 704 W/m² | - |
| 1777294087 | 25° C | 41% | 1017.7 hPa | 0 mm | - | 720 W/m² | - |
| 1777293728 | 24.44° C | 41% | 1017.7 hPa | 0 mm | - | 729 W/m² | - |
| 1777293367 | 24.44° C | 41% | 1017.9 hPa | 0 mm | - | 744 W/m² | - |
| 1777293007 | 24.44° C | 40% | 1017.9 hPa | 0 mm | - | 750 W/m² | - |
| 1777292649 | 24.44° C | 40% | 1018 hPa | 0 mm | - | 763 W/m² | - |
| 1777292287 | 25° C | 39% | 1018 hPa | 0 mm | - | 763 W/m² | - |
| 1777291930 | 24.44° C | 39% | 1018.1 hPa | 0 mm | - | 771 W/m² | - |
| 1777291568 | 23.33° C | 41% | 1018.1 hPa | 0 mm | - | 772 W/m² | - |
| 1777290847 | 23.33° C | 42% | 1018.3 hPa | 0 mm | - | 783 W/m² | - |
| 1777290489 | 23.33° C | 41% | 1018.3 hPa | 0 mm | - | 783 W/m² | - |
| 1777290128 | 22.78° C | 40% | 1018.4 hPa | 0 mm | - | 790 W/m² | - |
| 1777289769 | 22.78° C | 42% | 1018.5 hPa | 0 mm | - | 794 W/m² | - |
| 1777289409 | 23.33° C | 41% | 1018.5 hPa | 0 mm | - | 794 W/m² | - |
* Rain latest hour (hover to see other rain measurements)
** Current wind speed in m/s (hover to see current wind gust speed)